SCP
0 0 -0 0 0 0 0 0 0 0 0 0 0 0 0 0 0 0 0 0 1 1 1 0 0 0 0 1 1 1 1 1 2 2 2 1 1 1 1 1 1 1 1 0 0 0 0 0 0
0 0 0 0 0 0 0 0 0 0 0 0 0 0 0 0 0 0 0 0 1 1 0 0 0 0 0 1 1 1 1 1 1 1 1 1 1 1 1 1 1 1 0 0 0 0 0 0 0
-0 -0 0 0 0 0 0 0 0 0 0 0 0 0 0 0 0 0 0 0 0 0 0 0 1 1 1 1 1 1 1 1 1 1 1 1 1 1 1 1 1 1 0 0 0 0 0 0 0
0 0 0 0 0 0 0 0 0 0 0 0 0 0 0 0 0 0 0 0 0 0 0 1 1 1 1 1 0 1 1 1 1 1 1 1 1 1 1 1 1 0 0 0 0 0 0 0 0
0 0 0 0 0 0 0 0 0 0 0 0 0 0 0 0 0 0 0 0 0 0 0 1 1 1 1 1 0 0 0 1 1 1 1 1 1 1 1 1 1 0 0 0 0 0 0 0 0
0 0 0 0 0 0 0 0 0 0 0 0 0 0 0 1 1 1 0 0 0 0 0 1 1 1 1 1 1 1 0 0 1 1 1 1 1 1 1 1 1 0 0 0 0 0 0 0 0
0 0 0 0 0 0 0 0 0 0 0 0 0 0 1 1 1 1 1 0 0 0 0 1 1 1 1 1 1 1 1 1 1 1 1 1 1 1 1 1 1 1 0 0 0 0 0 0 0
0 0 0 0 0 0 0 0 0 0 0 0 0 0 1 1 1 1 1 1 0 0 0 0 1 1 1 1 1 1 1 1 1 1 1 1 1 1 1 1 1 1 0 0 0 0 0 0 0
0 0 0 0 0 0 0 0 0 0 0 0 0 0 1 1 1 1 1 1 0 0 0 0 0 0 0 0 1 1 1 1 1 1 1 1 1 1 1 1 1 1 1 1 0 0 0 0 0
0 0 0 0 0 0 0 0 0 0 0 0 0 1 1 1 2 2 1 1 1 0 0 0 0 0 0 0 0 1 1 1 1 1 1 1 0 0 1 1 1 1 1 1 1 0 0 0 0
0 0 0 0 0 0 0 0 0 0 0 0 0 1 1 1 2 1 1 1 1 0 0 0 0 0 0 0 0 0 1 1 1 1 1 1 1 0 1 1 1 1 1 1 1 1 0 0 0
0 0 0 0 0 0 0 0 0 0 0 0 0 1 1 1 2 1 1 1 1 0 0 0 0 1 1 0 0 1 1 1 1 1 1 1 1 1 1 1 1 1 1 1 1 0 0 0 0
0 0 0 0 0 0 0 0 0 0 0 0 0 1 1 1 1 1 1 1 1 1 1 1 1 1 1 1 1 1 1 1 1 1 1 1 1 1 1 1 1 1 1 1 1 1 0 0 0
0 0 0 0 0 0 0 0 0 0 0 0 0 1 1 1 1 1 1 1 1 1 1 1 1 1 1 1 1 1 1 1 2 2 2 1 2 2 2 2 2 2 2 1 1 1 1 1 0
0 0 0 0 0 0 0 0 0 0 0 0 0 0 1 1 1 1 2 2 2 1 1 1 1 2 2 2 2 2 2 2 2 3 2 2 2 2 3 3 3 3 2 2 2 1 1 1 1
0 0 0 0 0 0 0 0 0 0 0 0 0 0 0 1 1 1 2 2 2 2 2 2 2 3 3 3 3 3 3 3 3 4 3 3 3 3 3 3 3 3 3 3 3 2 2 1 1
0 0 0 0 0 0 0 0 0 0 0 0 0 0 1 1 1 1 2 2 2 3 3 3 4 4 4 4 4 4 5 5 4 5 5 4 3 3 4 4 4 4 4 5 4 4 3 2 2
0 0 0 0 0 0 0 0 0 0 0 0 1 1 1 1 1 2 2 3 3 4 4 5 5 5 5 6 6 7 7 7 6 7 7 5 4 4 4 4 4 4 5 6 6 5 4 3 3
0 0 0 0 0 0 0 0 0 0 1 1 1 2 2 2 2 2 2 3 4 5 5 6 6 7 7 8 9 9 10 9 9 8 7 6 5 5 5 5 5 4 5 5 5 5 4 3 2
0 0 0 0 0 0 0 0 0 1 1 2 2 3 3 3 3 3 3 3 4 5 6 6 7 8 8 9 10 10 10 9 9 8 7 6 5 5 5 5 5 4 4 3 3 2 2 1 1
0 0 0 0 0 0 0 0 0 1 2 3 4 4 4 4 5 4 4 4 4 5 6 6 7 8 9 10 10 9 9 7 7 6 6 5 4 4 4 3 3 3 2 1 1 1 1 0 0
0 0 0 0 0 0 0 0 0 1 2 4 5 5 5 5 5 5 5 5 4 5 6 7 8 8 9 10 9 9 7 6 5 4 4 3 3 2 2 2 2 1 1 0 0 0 0 0 0
0 0 0 0 0 0 0 0 0 1 3 4 5 5 5 5 5 5 5 5 5 6 7 8 8 8 9 9 9 8 7 5 4 3 3 2 1 1 1 1 1 1 0 0 0 0 0 0 0
0 0 0 0 0 0 0 0 0 2 3 4 5 4 4 5 5 4 5 5 6 7 8 8 8 8 8 8 8 7 5 4 3 2 2 1 1 0 0 0 0 0 0 0 0 0 0 0 0
0 0 0 0 0 0 0 0 1 2 3 4 4 3 4 4 4 4 4 5 6 7 7 7 7 7 7 6 6 5 4 2 2 1 1 1 1 0 0 0 0 0 0 0 0 0 0 0 0
0 0 0 0 0 0 0 1 1 2 3 3 3 3 3 3 3 3 3 4 6 6 7 7 6 5 4 3 3 3 2 1 1 1 1 1 0 0 0 0 0 0 0 0 0 0 0 0 0
0 0 0 0 0 0 0 1 1 2 2 2 2 2 2 2 2 2 3 4 4 5 5 4 3 2 2 1 1 1 1 1 1 1 1 0 0 0 0 0 0 0 0 0 0 0 0 0 0
0 0 0 0 0 0 0 0 1 2 2 2 2 2 2 1 1 1 1 2 2 2 2 1 1 1 1 1 1 0 0 0 0 0 0 0 0 0 0 0 0 0 0 0 0 0 0 0 0
0 0 0 0 0 0 0 0 1 2 2 2 2 2 1 1 1 1 1 1 1 0 0 0 0 0 0 0 0 0 0 0 0 0 0 0 0 0 0 0 0 0 0 0 0 0 0 0 0
0 0 0 0 0 0 0 1 1 2 2 2 2 1 1 1 1 1 0 0 0 0 0 0 0 0 0 0 0 0 0 0 0 0 0 0 0 0 0 0 0 0 0 0 0 0 0 0 0
Wind_Speed
8 7 7 7 9 8 4 2 3 4 3 4 3 4 4 5 6 5 6 14 15 17 18 19 14 14 13 12 12 13 14 15 14 14 14 13 12 12 11 11 10 10 10 10 10 10 10 9 9
6 5 7 7 9 8 1 2 3 6 6 3 0 2 2 1 5 6 9 14 16 17 17 18 16 14 13 13 12 13 14 15 15 14 14 13 13 12 11 11 10 9 9 9 9 9 8 8 7
6 6 7 8 9 10 3 2 5 5 3 3 2 1 2 3 4 6 10 16 17 16 16 17 17 14 14 13 13 13 14 14 14 14 13 13 12 11 10 10 9 9 8 8 8 8 7 7 6
6 7 7 10 15 11 9 7 8 9 5 3 3 1 3 5 3 8 15 17 17 16 16 18 17 15 14 14 13 13 13 13 13 13 12 11 11 10 9 9 8 7 7 7 7 7 6 5 5
7 8 12 15 18 13 9 9 11 11 8 4 5 2 4 6 7 13 16 17 16 16 15 18 15 15 15 15 14 12 12 11 11 11 11 10 9 9 8 8 7 6 6 6 6 6 5 4 4
8 9 14 17 18 13 10 10 12 13 11 7 5 5 5 9 11 15 16 16 16 15 15 17 16 16 15 15 13 12 11 10 10 9 9 9 8 8 7 7 6 6 5 5 5 5 5 4 3
12 12 18 20 16 13 10 8 10 11 11 9 6 4 7 10 12 15 15 15 15 15 14 16 17 16 15 13 12 11 10 10 9 9 9 9 8 8 7 7 6 5 5 5 5 4 4 4 3
9 10 18 18 16 14 7 6 7 10 10 5 7 7 6 14 14 15 14 14 14 14 14 15 16 16 15 15 14 12 11 11 10 10 10 9 9 8 7 8 7 5 5 4 4 4 4 3 3
9 11 15 15 12 10 6 7 5 5 8 7 9 4 5 18 17 16 14 14 14 14 13 14 15 14 14 13 14 14 12 11 11 11 10 10 10 11 10 7 7 5 4 4 4 3 3 4 6
10 13 15 8 7 6 4 6 5 6 10 11 10 7 9 18 19 18 17 17 17 17 16 14 14 14 13 10 11 10 11 11 11 10 11 10 7 5 5 11 7 5 5 5 4 4 6 9 6
11 12 9 7 8 8 8 7 6 9 10 11 12 13 15 18 19 19 18 18 18 17 16 15 14 13 13 9 9 7 7 8 10 10 10 7 6 5 5 5 8 8 8 8 8 8 6 5 1
11 11 9 9 7 8 9 9 8 11 11 6 8 11 17 20 20 20 19 18 16 16 17 16 15 13 12 10 8 7 7 6 7 8 9 7 5 5 5 4 4 5 4 4 4 4 4 3 3
15 10 10 12 12 11 12 13 12 12 10 7 7 11 17 19 19 18 17 16 16 16 17 16 15 13 11 9 7 8 7 6 7 5 7 6 5 5 5 4 3 4 3 5 4 4 3 4 5
10 12 11 12 13 12 13 14 11 9 6 7 9 12 16 18 18 17 18 17 17 16 16 15 15 14 12 10 8 7 6 5 5 6 7 7 5 4 4 4 4 4 3 3 3 3 3 3 2
7 10 12 14 14 12 10 14 13 7 4 7 9 11 14 16 17 18 19 18 17 16 15 14 14 14 13 12 11 7 6 6 5 4 4 5 6 4 4 4 4 3 3 2 3 3 3 2 2
10 11 12 11 11 11 11 13 8 2 4 6 7 9 11 13 16 17 17 16 16 15 15 15 13 14 14 11 9 7 5 4 4 3 3 4 5 5 4 4 3 2 2 3 3 2 2 2 2
11 12 12 9 8 8 12 12 5 1 3 5 6 7 9 11 14 15 16 16 15 15 15 15 15 14 14 12 9 6 4 4 3 3 2 3 3 4 3 2 1 1 1 1 1 1 1 1 1
11 11 10 10 8 8 12 12 6 3 4 5 5 6 7 9 11 11 13 13 14 15 15 15 15 14 13 11 8 6 6 5 3 2 2 1 0 0 1 1 0 0 1 1 2 3 2 1 1
5 8 9 7 2 7 11 11 9 6 6 6 5 4 5 7 7 7 8 10 12 14 14 15 15 15 12 10 10 8 7 6 4 3 3 2 2 2 2 1 1 1 2 2 3 2 2 1 1
11 11 10 7 4 7 9 12 10 7 5 3 4 5 5 6 6 4 5 7 10 12 14 14 15 15 15 11 9 7 7 5 4 4 4 4 3 3 3 3 3 3 3 4 3 3 2 1 1
15 14 12 9 6 9 10 13 12 8 4 1 3 5 6 7 7 6 3 4 7 9 11 11 13 13 13 12 9 8 6 5 4 5 4 4 4 4 4 4 3 3 3 3 3 3 4 2 2
14 13 12 10 11 10 8 11 11 8 6 3 5 7 9 9 8 7 5 2 1 3 5 8 10 11 12 13 12 13 9 7 6 4 4 5 4 4 4 4 4 4 4 4 4 2 1 2 2
12 8 10 10 11 11 10 10 9 7 7 3 7 10 11 11 11 9 8 7 6 5 5 7 8 9 10 10 11 10 7 5 5 6 7 6 6 5 5 5 5 4 4 4 4 3 2 1 0
9 7 7 9 10 13 13 11 9 4 2 4 8 10 11 11 11 12 12 11 11 10 10 9 10 10 9 8 8 7 9 8 8 7 7 6 5 6 7 7 6 5 5 5 5 4 4 3 2
13 11 9 11 11 10 8 10 3 8 6 6 8 10 11 11 12 12 13 13 13 13 12 11 12 11 10 9 8 8 9 8 8 7 7 7 6 6 7 7 6 6 5 5 4 4 3 3 2
16 16 11 8 9 8 9 8 9 8 8 9 11 11 12 12 12 13 13 13 13 14 13 13 13 13 12 11 10 9 8 6 6 7 7 7 6 7 8 7 7 7 6 5 4 3 3 1 1
15 16 15 10 7 7 8 7 9 9 10 11 11 12 12 12 13 13 14 14 14 14 14 14 14 14 13 13 12 11 10 10 10 10 9 8 8 8 8 8 7 6 5 4 3 3 2 1 2
12 12 9 11 10 11 9 11 10 13 11 11 11 11 11 12 12 13 13 13 13 13 13 14 15 14 14 13 11 10 11 11 10 10 10 9 9 9 9 8 7 6 6 5 3 3 2 1 2
12 12 11 11 11 10 10 5 8 12 11 12 12 12 12 12 11 11 11 11 12 13 13 14 14 14 13 13 12 12 12 11 11 10 10 10 9 8 8 7 7 6 5 4 2 2 2 3 4
12 12 12 10 10 10 10 6 6 9 11 13 13 12 12 12 11 11 11 11 12 13 13 13 13 13 13 12 12 12 12 11 11 11 10 9 9 8 7 7 6 5 4 3 3 3 3 4 5
Wind_Direction
207 226 255 261 259 252 282 34 353 355 18 19 345 318 330 335 336 32 109 153 150 149 148 155 157 155 150 143 136 132 132 134 136 138 139 137 134 131 128 127 126 126 126 125 124 123 123 123 124
212 229 247 257 271 267 218 45 355 12 16 347 241 250 281 37 49 95 138 150 152 151 152 159 154 157 152 147 141 138 138 139 138 139 141 139 138 136 135 135 134 132 131 129 127 125 125 125 126
199 236 265 268 259 271 303 26 354 350 339 289 274 258 317 34 100 129 141 152 153 152 157 149 156 158 155 152 148 146 145 145 145 145 145 144 143 141 141 142 141 138 135 132 129 125 125 126 128
201 222 242 254 256 259 281 300 316 307 292 265 265 207 94 61 107 135 143 155 156 158 161 149 161 161 159 158 156 154 152 151 151 150 149 147 146 144 145 146 145 141 136 131 126 122 121 122 125
230 245 247 249 255 260 270 286 293 286 279 257 256 244 117 102 114 135 150 158 161 162 163 153 161 162 163 164 164 162 159 157 155 153 152 149 148 148 150 150 148 146 141 132 123 117 113 113 115
221 238 246 249 252 252 259 270 274 271 266 247 241 242 116 124 140 150 156 164 165 165 165 152 161 167 169 170 170 168 164 160 157 155 154 152 151 153 156 156 155 151 144 134 124 117 113 109 107
236 236 246 252 259 258 259 264 262 262 255 240 229 225 135 150 151 157 160 167 168 168 167 162 170 173 175 175 173 170 166 163 161 159 159 160 161 163 165 163 160 154 147 139 130 122 118 115 113
248 245 246 247 252 254 245 242 250 261 261 240 220 228 165 155 154 160 163 171 172 173 175 172 176 177 180 180 179 177 172 170 170 170 172 171 172 177 176 182 159 159 155 149 137 128 127 129 127
236 240 241 238 243 245 220 240 247 257 250 223 216 240 100 145 157 165 169 177 179 180 181 182 179 180 187 184 171 180 180 179 180 182 181 189 197 188 183 177 144 167 167 161 150 145 152 178 166
222 236 241 249 252 252 237 258 271 245 228 215 204 176 142 154 166 175 180 183 185 186 188 187 184 181 188 185 169 188 189 180 199 190 185 201 204 203 198 125 151 176 181 180 171 174 198 227 190
222 241 248 240 245 265 269 268 261 256 238 218 206 185 171 173 178 186 190 191 191 189 190 191 187 188 189 186 181 188 194 180 199 198 193 203 202 197 207 177 173 189 197 202 172 200 212 213 211
230 240 251 249 243 254 268 277 271 254 253 243 223 193 181 186 189 193 196 195 193 194 193 196 188 189 197 193 187 192 195 187 198 189 204 197 205 212 207 213 198 196 201 207 212 212 190 208 195
229 235 235 245 252 259 272 269 271 263 258 248 229 200 194 197 198 198 199 199 197 198 197 197 195 188 194 199 201 199 202 196 195 195 200 213 211 213 208 213 223 229 209 195 218 218 183 209 201
226 235 244 247 251 255 260 264 253 253 253 235 216 205 204 208 205 198 199 202 203 201 200 197 197 190 193 197 205 202 204 201 210 200 202 208 223 219 222 216 211 229 230 230 219 203 196 220 220
238 237 237 236 238 243 255 250 235 241 253 230 215 210 213 215 210 206 204 204 204 202 200 200 198 193 195 200 203 204 205 200 210 203 207 211 227 221 234 239 221 220 210 195 224 199 214 208 204
213 227 232 211 217 224 236 234 186 178 238 231 223 214 218 219 219 214 210 207 205 202 198 199 200 195 194 199 201 203 204 193 197 199 202 211 234 235 238 249 246 230 225 212 205 219 219 216 237
205 218 219 195 198 214 226 240 168 208 256 248 234 227 223 224 225 221 217 209 206 204 199 197 200 196 192 191 190 192 178 183 189 193 200 207 232 246 249 263 284 272 249 229 201 133 268 250 276
202 213 209 208 171 226 232 243 240 251 274 261 251 242 234 235 235 231 225 218 208 204 201 200 196 193 187 184 180 180 173 171 168 169 147 132 144 293 327 7 347 246 147 115 107 109 65 9 326
230 224 215 213 190 252 241 248 254 254 264 263 263 268 265 258 259 249 231 221 213 206 202 200 197 188 184 182 180 177 174 163 151 134 122 128 129 129 125 116 135 168 164 160 151 132 146 154 254
228 230 227 223 213 264 259 257 255 252 252 299 322 317 312 307 304 287 249 221 216 211 206 201 197 190 186 183 177 172 157 148 137 130 125 130 132 138 146 165 172 177 170 166 163 161 180 176 220
224 233 238 243 239 238 255 246 228 219 200 89 17 7 356 346 336 330 306 244 218 211 206 203 197 188 183 170 159 148 143 141 146 151 143 133 140 135 134 152 162 155 152 150 151 170 192 189 181
222 224 239 244 248 233 222 251 204 200 191 113 37 24 15 7 2 355 357 356 192 191 187 185 178 170 166 162 164 164 169 167 160 151 138 126 119 120 124 129 133 132 129 135 145 145 169 185 183
229 214 225 237 245 257 225 248 226 184 203 89 43 33 27 23 25 29 34 44 58 78 104 122 133 142 149 154 158 161 157 140 130 129 128 123 110 107 112 112 108 105 101 102 102 107 95 104 127
214 204 216 235 239 238 231 234 224 141 78 48 54 48 39 37 41 46 52 58 62 70 81 93 103 108 120 131 137 138 130 129 133 137 133 124 112 108 107 104 100 97 95 95 95 94 89 71 64
208 210 208 208 213 228 194 222 133 84 73 70 70 63 53 48 49 50 52 55 58 63 71 80 88 88 91 95 97 104 114 123 132 135 131 123 114 107 103 102 102 100 98 99 98 96 85 78 66
205 218 231 228 217 195 178 213 107 99 94 90 85 75 63 54 52 51 50 52 57 60 66 73 77 78 78 80 81 83 90 96 97 99 104 104 103 102 106 104 104 105 105 105 104 104 96 81 7
205 219 239 263 264 244 179 132 123 125 112 102 92 82 70 61 56 54 51 52 55 58 61 68 74 74 72 75 77 76 77 81 87 93 97 101 107 112 109 106 101 98 94 90 87 75 60 35 321
233 217 219 236 236 232 202 194 168 156 134 116 101 89 79 69 61 56 53 53 55 59 63 67 70 73 73 74 75 80 82 86 93 95 95 98 101 102 105 100 96 93 89 89 87 99 65 339 322
203 212 222 233 249 248 229 170 95 141 136 122 106 96 86 77 68 62 59 59 61 63 64 67 70 73 74 75 77 79 81 84 88 89 91 92 92 95 97 98 98 95 91 84 67 39 1 326 322
209 214 217 231 228 245 266 105 104 124 126 121 112 102 92 85 79 74 71 68 66 65 66 67 69 72 75 79 81 81 84 85 85 86 86 90 92 94 97 97 95 92 84 65 36 5 345 330 327